Time,TemperatureF,DewpointF,PressureIn,WindDirection,WindDirectionDegrees,WindSpeedMPH,WindSpeedGustMPH,Humidity,HourlyPrecipIn,Conditions,Clouds,dailyrainin,SolarRadiationWatts/m^2,SoftwareType,DateUTC
2013-05-07 00:01:00,54.9,46.0,29.89,North,32767,0.0,0.0,72,0.00,,,0.00,0,Wunderground v.1.15,2013-05-07 04:01:00,
2013-05-07 00:02:00,54.9,46.0,29.89,North,32767,0.0,0.0,72,0.00,,,0.00,0,Wunderground v.1.15,2013-05-07 04:02:00,
2013-05-07 00:03:00,54.8,45.9,29.89,North,32767,0.0,0.0,72,0.00,,,0.00,0,Wunderground v.1.15,2013-05-07 04:03:00,
2013-05-07 00:06:00,54.7,46.2,29.89,North,32767,0.0,0.0,73,0.00,,,0.00,0,Wunderground v.1.15,2013-05-07 04:06:00,
2013-05-07 00:08:00,54.6,46.1,29.89,North,32767,0.0,0.0,73,0.00,,,0.00,0,Wunderground v.1.15,2013-05-07 04:08:00,
2013-05-07 00:14:00,54.2,46.1,29.90,North,32767,0.0,0.0,74,0.00,,,0.00,0,Wunderground v.1.15,2013-05-07 04:14:00,
2013-05-07 00:20:00,53.9,46.5,29.89,North,32767,0.0,0.0,76,0.00,,,0.00,0,Wunderground v.1.15,2013-05-07 04:20:00,
2013-05-07 00:26:00,53.7,46.3,29.89,North,32767,0.0,0.0,76,0.00,,,0.00,0,Wunderground v.1.15,2013-05-07 04:26:00,
2013-05-07 00:31:00,53.5,46.5,29.89,North,32767,0.0,0.0,77,0.00,,,0.00,0,Wunderground v.1.15,2013-05-07 04:31:00,
2013-05-07 00:37:00,53.2,46.5,29.89,North,32767,0.0,0.0,78,0.00,,,0.00,0,Wunderground v.1.15,2013-05-07 04:37:00,
2013-05-07 00:43:00,53.0,46.7,29.89,North,32767,0.0,0.0,79,0.00,,,0.00,0,Wunderground v.1.15,2013-05-07 04:43:00,
2013-05-07 00:49:00,52.9,46.9,29.89,North,32767,0.0,0.0,80,0.00,,,0.00,0,Wunderground v.1.15,2013-05-07 04:49:00,
2013-05-07 00:54:00,52.8,47.1,29.89,North,32767,0.0,0.0,81,0.00,,,0.00,0,Wunderground v.1.15,2013-05-07 04:54:00,
2013-05-07 01:00:00,52.7,47.0,29.89,North,32767,0.0,0.0,81,0.00,,,0.00,0,Wunderground v.1.15,2013-05-07 05:00:00,
2013-05-07 01:06:00,52.6,46.9,29.89,North,32767,0.0,0.0,81,0.00,,,0.00,0,Wunderground v.1.15,2013-05-07 05:06:00,
2013-05-07 01:12:00,52.5,46.8,29.89,North,32767,0.0,0.0,81,0.00,,,0.00,0,Wunderground v.1.15,2013-05-07 05:12:00,
2013-05-07 01:17:00,52.4,47.1,29.89,North,32767,0.0,0.0,82,0.00,,,0.00,0,Wunderground v.1.15,2013-05-07 05:17:00,
2013-05-07 01:23:00,52.2,46.9,29.88,North,32767,0.0,0.0,82,0.00,,,0.00,0,Wunderground v.1.15,2013-05-07 05:23:00,
2013-05-07 01:29:00,52.1,46.8,29.88,North,32767,0.0,0.0,82,0.00,,,0.00,0,Wunderground v.1.15,2013-05-07 05:29:00,
2013-05-07 01:35:00,51.9,46.9,29.88,North,32767,0.0,0.0,83,0.00,,,0.00,0,Wunderground v.1.15,2013-05-07 05:35:00,
2013-05-07 01:40:00,51.7,46.7,29.88,North,32767,0.0,0.0,83,0.00,,,0.00,0,Wunderground v.1.15,2013-05-07 05:40:00,
2013-05-07 01:46:00,51.6,46.9,29.88,North,32767,0.0,0.0,84,0.00,,,0.00,0,Wunderground v.1.15,2013-05-07 05:46:00,
2013-05-07 01:52:00,51.5,46.8,29.88,North,32767,0.0,0.0,84,0.00,,,0.00,0,Wunderground v.1.15,2013-05-07 05:52:00,
2013-05-07 01:58:00,51.5,46.8,29.88,North,32767,0.0,0.0,84,0.00,,,0.00,0,Wunderground v.1.15,2013-05-07 05:58:00,
2013-05-07 02:03:00,51.3,46.9,29.88,North,32767,0.0,0.0,85,0.00,,,0.00,0,Wunderground v.1.15,2013-05-07 06:03:00,
2013-05-07 02:09:00,51.3,46.9,29.88,North,32767,0.0,0.0,85,0.00,,,0.00,0,Wunderground v.1.15,2013-05-07 06:09:00,
2013-05-07 02:15:00,51.2,46.8,29.88,North,32767,0.0,0.0,85,0.00,,,0.00,0,Wunderground v.1.15,2013-05-07 06:15:00,
2013-05-07 02:21:00,51.2,46.8,29.88,North,32767,0.0,0.0,85,0.00,,,0.00,0,Wunderground v.1.15,2013-05-07 06:21:00,
2013-05-07 02:27:00,51.1,46.7,29.87,North,32767,0.0,0.0,85,0.00,,,0.00,0,Wunderground v.1.15,2013-05-07 06:27:00,
2013-05-07 02:32:00,51.0,46.3,29.87,North,32767,0.0,0.0,84,0.00,,,0.00,0,Wunderground v.1.15,2013-05-07 06:32:00,
2013-05-07 02:38:00,51.0,46.3,29.87,North,32767,0.0,0.0,84,0.00,,,0.00,0,Wunderground v.1.15,2013-05-07 06:38:00,
2013-05-07 02:44:00,51.0,46.0,29.87,North,32767,0.0,0.0,83,0.00,,,0.00,0,Wunderground v.1.15,2013-05-07 06:44:00,
2013-05-07 02:50:00,51.0,45.7,29.87,North,32767,0.0,0.0,82,0.00,,,0.00,0,Wunderground v.1.15,2013-05-07 06:50:00,
2013-05-07 02:56:00,50.9,44.9,29.87,North,32767,0.0,0.0,80,0.00,,,0.00,0,Wunderground v.1.15,2013-05-07 06:56:00,
2013-05-07 03:01:00,50.9,44.9,29.87,North,32767,0.0,0.0,80,0.00,,,0.00,0,Wunderground v.1.15,2013-05-07 07:01:00,
2013-05-07 03:07:00,50.9,44.6,29.87,North,32767,0.0,0.0,79,0.00,,,0.00,0,Wunderground v.1.15,2013-05-07 07:07:00,
2013-05-07 03:12:00,50.8,44.2,29.87,North,32767,0.0,0.0,78,0.00,,,0.00,0,Wunderground v.1.15,2013-05-07 07:12:00,
2013-05-07 03:18:00,50.7,43.8,29.87,North,32767,0.0,0.0,77,0.00,,,0.00,0,Wunderground v.1.15,2013-05-07 07:18:00,
2013-05-07 03:24:00,50.7,43.8,29.87,North,32767,0.0,0.0,77,0.00,,,0.00,0,Wunderground v.1.15,2013-05-07 07:24:00,
2013-05-07 03:30:00,50.6,42.3,29.87,North,32767,0.0,0.0,73,0.00,,,0.00,0,Wunderground v.1.15,2013-05-07 07:30:00,
2013-05-07 03:35:00,50.6,42.3,29.87,North,32767,0.0,0.0,73,0.00,,,0.00,0,Wunderground v.1.15,2013-05-07 07:35:00,
2013-05-07 03:41:00,50.6,41.9,29.87,North,32767,0.0,0.0,72,0.00,,,0.00,0,Wunderground v.1.15,2013-05-07 07:41:00,
2013-05-07 03:47:00,50.6,41.5,29.86,North,32767,0.0,0.0,71,0.00,,,0.00,0,Wunderground v.1.15,2013-05-07 07:47:00,
2013-05-07 03:53:00,50.7,42.0,29.86,North,32767,0.0,0.0,72,0.00,,,0.00,0,Wunderground v.1.15,2013-05-07 07:53:00,
2013-05-07 03:59:00,50.7,41.6,29.87,North,32767,0.0,0.0,71,0.00,,,0.00,0,Wunderground v.1.15,2013-05-07 07:59:00,
2013-05-07 04:04:00,50.8,42.8,29.87,North,32767,0.0,0.0,74,0.00,,,0.00,0,Wunderground v.1.15,2013-05-07 08:04:00,
2013-05-07 04:10:00,50.9,43.6,29.86,North,32767,0.0,0.0,76,0.00,,,0.00,0,Wunderground v.1.15,2013-05-07 08:10:00,
2013-05-07 04:15:00,50.9,42.9,29.87,North,32767,0.0,0.0,74,0.00,,,0.00,0,Wunderground v.1.15,2013-05-07 08:15:00,
2013-05-07 04:21:00,50.8,43.2,29.87,North,32767,0.0,0.0,75,0.00,,,0.00,0,Wunderground v.1.15,2013-05-07 08:21:00,
2013-05-07 04:27:00,50.8,42.5,29.87,North,32767,0.0,0.0,73,0.00,,,0.00,0,Wunderground v.1.15,2013-05-07 08:27:00,
2013-05-07 04:32:00,50.6,41.9,29.87,North,32767,0.0,0.0,72,0.00,,,0.00,0,Wunderground v.1.15,2013-05-07 08:32:00,
2013-05-07 04:37:00,50.6,42.6,29.87,North,32767,0.0,0.0,74,0.00,,,0.00,0,Wunderground v.1.15,2013-05-07 08:37:00,
2013-05-07 04:43:00,50.5,42.5,29.87,North,32767,0.0,0.0,74,0.00,,,0.00,0,Wunderground v.1.15,2013-05-07 08:43:00,
2013-05-07 04:49:00,50.4,42.8,29.87,North,32767,0.0,0.0,75,0.00,,,0.00,0,Wunderground v.1.15,2013-05-07 08:49:00,
2013-05-07 04:55:00,50.4,43.1,29.87,North,32767,0.0,0.0,76,0.00,,,0.00,0,Wunderground v.1.15,2013-05-07 08:55:00,
2013-05-07 05:01:00,50.4,43.8,29.87,North,32767,0.0,0.0,78,0.00,,,0.00,0,Wunderground v.1.15,2013-05-07 09:01:00,
2013-05-07 05:06:00,50.4,43.1,29.87,North,32767,0.0,0.0,76,0.00,,,0.00,0,Wunderground v.1.15,2013-05-07 09:06:00,
2013-05-07 05:12:00,50.2,42.9,29.87,North,32767,0.0,0.0,76,0.00,,,0.00,0,Wunderground v.1.15,2013-05-07 09:12:00,
2013-05-07 05:18:00,50.2,42.2,29.87,North,32767,0.0,0.0,74,0.00,,,0.00,0,Wunderground v.1.15,2013-05-07 09:18:00,
2013-05-07 05:24:00,50.1,42.1,29.88,North,32767,0.0,0.0,74,0.00,,,0.00,0,Wunderground v.1.15,2013-05-07 09:24:00,
2013-05-07 05:30:00,50.1,42.1,29.88,North,32767,0.0,0.0,74,0.00,,,0.00,0,Wunderground v.1.15,2013-05-07 09:30:00,
2013-05-07 05:35:00,50.1,42.1,29.88,North,32767,0.0,0.0,74,0.00,,,0.00,0,Wunderground v.1.15,2013-05-07 09:35:00,
2013-05-07 05:41:00,50.1,42.5,29.88,North,32767,0.0,0.0,75,0.00,,,0.00,0,Wunderground v.1.15,2013-05-07 09:41:00,
2013-05-07 05:47:00,50.2,42.6,29.89,North,32767,0.0,0.0,75,0.00,,,0.00,0,Wunderground v.1.15,2013-05-07 09:47:00,
2013-05-07 05:53:00,50.2,42.6,29.89,North,32767,0.0,0.0,75,0.00,,,0.00,0,Wunderground v.1.15,2013-05-07 09:53:00,
2013-05-07 05:59:00,50.2,42.2,29.89,North,32767,0.0,0.0,74,0.00,,,0.00,0,Wunderground v.1.15,2013-05-07 09:59:00,
2013-05-07 06:04:00,50.2,42.2,29.89,North,32767,0.0,0.0,74,0.00,,,0.00,0,Wunderground v.1.15,2013-05-07 10:04:00,
2013-05-07 06:10:00,50.2,42.9,29.89,North,32767,0.0,0.0,76,0.00,,,0.00,0,Wunderground v.1.15,2013-05-07 10:10:00,
2013-05-07 06:16:00,50.0,42.7,29.89,North,32767,0.0,0.0,76,0.00,,,0.00,0,Wunderground v.1.15,2013-05-07 10:16:00,
2013-05-07 06:22:00,49.9,43.0,29.89,North,32767,0.0,0.0,77,0.00,,,0.00,0,Wunderground v.1.15,2013-05-07 10:22:00,
2013-05-07 06:28:00,49.7,42.4,29.89,North,32767,0.0,0.0,76,0.00,,,0.00,5,Wunderground v.1.15,2013-05-07 10:28:00,
2013-05-07 06:33:00,49.6,42.7,29.89,North,32767,0.0,0.0,77,0.00,,,0.00,7,Wunderground v.1.15,2013-05-07 10:33:00,
2013-05-07 06:39:00,49.5,42.6,29.89,North,32767,0.0,0.0,77,0.00,,,0.00,9,Wunderground v.1.15,2013-05-07 10:39:00,
2013-05-07 06:45:00,49.4,42.8,29.89,North,32767,0.0,0.0,78,0.00,,,0.00,12,Wunderground v.1.15,2013-05-07 10:45:00,
2013-05-07 06:51:00,49.3,42.7,29.89,North,32767,0.0,0.0,78,0.00,,,0.00,16,Wunderground v.1.15,2013-05-07 10:51:00,
2013-05-07 06:57:00,49.2,43.0,29.90,North,32767,0.0,0.0,79,0.00,,,0.00,21,Wunderground v.1.15,2013-05-07 10:57:00,
2013-05-07 07:02:00,49.1,42.9,29.90,North,32767,0.0,0.0,79,0.00,,,0.00,26,Wunderground v.1.15,2013-05-07 11:02:00,
2013-05-07 07:08:00,49.3,42.7,29.90,North,32767,0.0,0.0,78,0.00,,,0.00,33,Wunderground v.1.15,2013-05-07 11:08:00,
2013-05-07 07:14:00,49.6,43.4,29.90,North,32767,0.0,0.0,79,0.00,,,0.00,44,Wunderground v.1.15,2013-05-07 11:14:00,
2013-05-07 07:20:00,50.2,43.9,29.90,North,32767,0.0,0.0,79,0.00,,,0.00,49,Wunderground v.1.15,2013-05-07 11:20:00,
2013-05-07 07:25:00,50.6,45.0,29.91,North,32767,0.0,0.0,81,0.00,,,0.00,51,Wunderground v.1.15,2013-05-07 11:25:00,
2013-05-07 07:31:00,51.1,45.1,29.91,North,32767,0.0,0.0,80,0.00,,,0.00,58,Wunderground v.1.15,2013-05-07 11:31:00,
2013-05-07 07:37:00,51.5,44.9,29.91,North,32767,0.0,0.0,78,0.00,,,0.00,62,Wunderground v.1.15,2013-05-07 11:37:00,
2013-05-07 07:43:00,52.1,44.8,29.91,North,32767,0.0,0.0,76,0.00,,,0.00,58,Wunderground v.1.15,2013-05-07 11:43:00,
2013-05-07 07:48:00,52.7,45.3,29.91,North,32767,0.0,0.0,76,0.00,,,0.00,56,Wunderground v.1.15,2013-05-07 11:48:00,
2013-05-07 07:54:00,53.5,45.4,29.92,North,32767,0.0,0.0,74,0.00,,,0.00,49,Wunderground v.1.15,2013-05-07 11:54:00,
2013-05-07 08:00:00,54.2,45.7,29.92,North,32767,0.0,0.0,73,0.00,,,0.00,53,Wunderground v.1.15,2013-05-07 12:00:00,
2013-05-07 08:06:00,54.7,45.8,29.92,North,32767,0.0,0.0,72,0.00,,,0.00,58,Wunderground v.1.15,2013-05-07 12:06:00,
2013-05-07 08:11:00,55.2,47.1,29.92,North,32767,0.0,0.0,74,0.00,,,0.00,47,Wunderground v.1.15,2013-05-07 12:11:00,
2013-05-07 08:17:00,55.7,47.5,29.92,North,32767,0.0,0.0,74,0.00,,,0.00,65,Wunderground v.1.15,2013-05-07 12:17:00,
2013-05-07 08:23:00,56.2,47.7,29.92,North,32767,0.0,0.0,73,0.00,,,0.00,227,Wunderground v.1.15,2013-05-07 12:23:00,
2013-05-07 08:29:00,57.0,47.7,29.92,North,32767,0.0,0.0,71,0.00,,,0.00,186,Wunderground v.1.15,2013-05-07 12:29:00,
2013-05-07 08:34:00,57.9,48.2,29.92,North,32767,0.0,0.0,70,0.00,,,0.00,288,Wunderground v.1.15,2013-05-07 12:34:00,
2013-05-07 08:40:00,59.1,48.9,29.92,North,32767,0.0,0.0,69,0.00,,,0.00,264,Wunderground v.1.15,2013-05-07 12:40:00,
2013-05-07 08:46:00,60.2,49.2,29.92,North,32767,0.0,0.0,67,0.00,,,0.00,322,Wunderground v.1.15,2013-05-07 12:46:00,
2013-05-07 08:52:00,61.3,50.6,29.92,North,32767,0.0,0.0,68,0.00,,,0.00,241,Wunderground v.1.15,2013-05-07 12:52:00,
2013-05-07 08:58:00,62.2,49.9,29.92,North,32767,0.0,0.0,64,0.00,,,0.00,345,Wunderground v.1.15,2013-05-07 12:58:00,
2013-05-07 09:03:00,62.8,51.3,29.92,North,32767,0.0,0.0,66,0.00,,,0.00,246,Wunderground v.1.15,2013-05-07 13:03:00,
2013-05-07 09:09:00,63.5,50.7,29.92,North,32767,0.0,0.0,63,0.00,,,0.00,343,Wunderground v.1.15,2013-05-07 13:09:00,
2013-05-07 09:15:00,64.1,51.7,29.92,North,32767,0.0,0.0,64,0.00,,,0.00,380,Wunderground v.1.15,2013-05-07 13:15:00,
2013-05-07 09:21:00,64.7,51.8,29.92,North,32767,0.0,0.0,63,0.00,,,0.00,316,Wunderground v.1.15,2013-05-07 13:21:00,
2013-05-07 09:27:00,64.8,51.9,29.92,North,32767,0.0,0.0,63,0.00,,,0.00,353,Wunderground v.1.15,2013-05-07 13:27:00,
2013-05-07 09:32:00,65.1,52.2,29.93,North,32767,0.0,0.0,63,0.00,,,0.00,411,Wunderground v.1.15,2013-05-07 13:32:00,
2013-05-07 09:38:00,65.7,52.8,29.92,North,32767,0.0,0.0,63,0.00,,,0.00,432,Wunderground v.1.15,2013-05-07 13:38:00,
2013-05-07 09:44:00,66.3,52.9,29.92,North,32767,0.0,0.0,62,0.00,,,0.00,394,Wunderground v.1.15,2013-05-07 13:44:00,
2013-05-07 09:50:00,66.5,53.1,29.92,North,32767,0.0,0.0,62,0.00,,,0.00,468,Wunderground v.1.15,2013-05-07 13:50:00,
2013-05-07 09:56:00,67.0,52.7,29.92,North,32767,0.0,0.0,60,0.00,,,0.00,515,Wunderground v.1.15,2013-05-07 13:56:00,
2013-05-07 10:02:00,67.4,52.6,29.92,North,32767,0.0,0.0,59,0.00,,,0.00,429,Wunderground v.1.15,2013-05-07 14:02:00,
2013-05-07 10:08:00,67.6,53.2,29.92,North,32767,0.0,0.0,60,0.00,,,0.00,536,Wunderground v.1.15,2013-05-07 14:08:00,
2013-05-07 10:14:00,67.9,54.4,29.92,North,32767,0.0,0.0,62,0.00,,,0.00,659,Wunderground v.1.15,2013-05-07 14:14:00,
2013-05-07 10:20:00,68.7,53.3,29.92,North,32767,0.0,0.0,58,0.00,,,0.00,536,Wunderground v.1.15,2013-05-07 14:20:00,
2013-05-07 10:26:00,69.0,53.6,29.92,North,32767,0.0,0.0,58,0.00,,,0.00,482,Wunderground v.1.15,2013-05-07 14:26:00,
2013-05-07 10:31:00,69.1,53.2,29.92,North,32767,0.0,0.0,57,0.00,,,0.00,529,Wunderground v.1.15,2013-05-07 14:31:00,
2013-05-07 10:37:00,69.4,53.5,29.92,North,32767,0.0,0.0,57,0.00,,,0.00,670,Wunderground v.1.15,2013-05-07 14:37:00,
2013-05-07 10:43:00,70.0,53.6,29.91,North,32767,0.0,0.0,56,0.00,,,0.00,596,Wunderground v.1.15,2013-05-07 14:43:00,
2013-05-07 10:49:00,70.5,54.5,29.91,North,32767,0.0,0.0,57,0.00,,,0.00,643,Wunderground v.1.15,2013-05-07 14:49:00,
2013-05-07 10:55:00,70.7,53.2,29.91,North,32767,0.0,0.0,54,0.00,,,0.00,684,Wunderground v.1.15,2013-05-07 14:55:00,
2013-05-07 11:01:00,70.9,53.4,29.91,North,32767,0.0,0.0,54,0.00,,,0.00,610,Wunderground v.1.15,2013-05-07 15:01:00,
2013-05-07 11:06:00,71.1,54.1,29.91,North,32767,0.0,0.0,55,0.00,,,0.00,592,Wunderground v.1.15,2013-05-07 15:06:00,
2013-05-07 11:12:00,71.4,54.9,29.91,North,32767,0.0,0.0,56,0.00,,,0.00,715,Wunderground v.1.15,2013-05-07 15:12:00,
2013-05-07 11:18:00,71.8,54.3,29.91,North,32767,0.0,0.0,54,0.00,,,0.00,766,Wunderground v.1.15,2013-05-07 15:18:00,
2013-05-07 11:24:00,72.1,55.0,29.91,North,32767,0.0,0.0,55,0.00,,,0.00,687,Wunderground v.1.15,2013-05-07 15:24:00,
2013-05-07 11:30:00,72.3,54.7,29.91,North,32767,0.0,0.0,54,0.00,,,0.00,656,Wunderground v.1.15,2013-05-07 15:30:00,
2013-05-07 11:35:00,72.4,54.3,29.91,North,32767,0.0,0.0,53,0.00,,,0.00,671,Wunderground v.1.15,2013-05-07 15:35:00,
2013-05-07 11:41:00,72.7,54.1,29.91,North,32767,0.0,0.0,52,0.00,,,0.00,717,Wunderground v.1.15,2013-05-07 15:41:00,
2013-05-07 11:47:00,72.8,53.6,29.91,North,32767,0.0,0.0,51,0.00,,,0.00,578,Wunderground v.1.15,2013-05-07 15:47:00,
2013-05-07 11:53:00,72.8,55.2,29.91,North,32767,0.0,0.0,54,0.00,,,0.00,533,Wunderground v.1.15,2013-05-07 15:53:00,
2013-05-07 11:59:00,72.6,53.4,29.91,North,32767,0.0,0.0,51,0.00,,,0.00,596,Wunderground v.1.15,2013-05-07 15:59:00,
2013-05-07 12:04:00,72.4,53.8,29.91,North,32767,0.0,0.0,52,0.00,,,0.00,624,Wunderground v.1.15,2013-05-07 16:04:00,
2013-05-07 12:10:00,72.3,53.7,29.91,North,32767,0.0,0.0,52,0.00,,,0.00,677,Wunderground v.1.15,2013-05-07 16:10:00,
2013-05-07 12:16:00,72.4,55.3,29.91,North,32767,0.0,0.0,55,0.00,,,0.00,902,Wunderground v.1.15,2013-05-07 16:16:00,
2013-05-07 12:22:00,72.7,54.1,29.91,North,32767,0.0,0.0,52,0.00,,,0.00,949,Wunderground v.1.15,2013-05-07 16:22:00,
2013-05-07 12:28:00,73.2,55.0,29.90,North,32767,0.0,0.0,53,0.00,,,0.00,930,Wunderground v.1.15,2013-05-07 16:28:00,
2013-05-07 12:33:00,73.5,55.3,29.90,North,32767,0.0,0.0,53,0.00,,,0.00,921,Wunderground v.1.15,2013-05-07 16:33:00,
2013-05-07 12:39:00,74.0,54.2,29.90,North,32767,0.0,0.0,50,0.00,,,0.00,976,Wunderground v.1.15,2013-05-07 16:39:00,
2013-05-07 12:45:00,74.0,55.3,29.90,North,32767,0.0,0.0,52,0.00,,,0.00,963,Wunderground v.1.15,2013-05-07 16:45:00,
2013-05-07 12:51:00,74.3,54.5,29.90,North,32767,0.0,0.0,50,0.00,,,0.00,990,Wunderground v.1.15,2013-05-07 16:51:00,
2013-05-07 12:56:00,74.7,54.3,29.90,North,32767,0.0,0.0,49,0.00,,,0.00,956,Wunderground v.1.15,2013-05-07 16:56:00,
2013-05-07 13:01:00,75.2,53.6,29.90,North,32767,0.0,0.0,47,0.00,,,0.00,969,Wunderground v.1.15,2013-05-07 17:01:00,
2013-05-07 13:07:00,75.4,53.2,29.90,North,32767,0.0,0.0,46,0.00,,,0.00,953,Wunderground v.1.15,2013-05-07 17:07:00,
2013-05-07 13:12:00,75.4,53.2,29.90,North,32767,0.0,0.0,46,0.00,,,0.00,972,Wunderground v.1.15,2013-05-07 17:12:00,
2013-05-07 13:18:00,75.3,54.3,29.89,North,32767,0.0,0.0,48,0.00,,,0.00,970,Wunderground v.1.15,2013-05-07 17:18:00,
2013-05-07 13:24:00,75.8,52.9,29.89,North,32767,0.0,0.0,45,0.00,,,0.00,967,Wunderground v.1.15,2013-05-07 17:24:00,
2013-05-07 13:30:00,75.8,53.5,29.89,North,32767,0.0,0.0,46,0.00,,,0.00,969,Wunderground v.1.15,2013-05-07 17:30:00,
2013-05-07 13:35:00,75.9,52.4,29.89,North,32767,0.0,0.0,44,0.00,,,0.00,974,Wunderground v.1.15,2013-05-07 17:35:00,
2013-05-07 13:41:00,75.9,52.4,29.88,North,32767,0.0,0.0,44,0.00,,,0.00,905,Wunderground v.1.15,2013-05-07 17:41:00,
2013-05-07 13:47:00,76.1,53.8,29.89,North,32767,0.0,0.0,46,0.00,,,0.00,972,Wunderground v.1.15,2013-05-07 17:47:00,
2013-05-07 13:53:00,76.4,52.2,29.88,North,32767,0.0,0.0,43,0.00,,,0.00,965,Wunderground v.1.15,2013-05-07 17:53:00,
2013-05-07 13:59:00,76.2,52.1,29.88,North,32767,0.0,0.0,43,0.00,,,0.00,969,Wunderground v.1.15,2013-05-07 17:59:00,
2013-05-07 14:04:00,76.3,53.4,29.88,North,32767,0.0,0.0,45,0.00,,,0.00,962,Wunderground v.1.15,2013-05-07 18:04:00,
2013-05-07 14:10:00,76.5,54.2,29.88,North,32767,0.0,0.0,46,0.00,,,0.00,940,Wunderground v.1.15,2013-05-07 18:10:00,
2013-05-07 14:16:00,76.4,52.9,29.88,North,32767,0.0,0.0,44,0.00,,,0.00,958,Wunderground v.1.15,2013-05-07 18:16:00,
2013-05-07 14:22:00,76.6,53.7,29.88,North,32767,0.0,0.0,45,0.00,,,0.00,969,Wunderground v.1.15,2013-05-07 18:22:00,
2013-05-07 14:28:00,76.6,52.4,29.88,North,32767,0.0,0.0,43,0.00,,,0.00,979,Wunderground v.1.15,2013-05-07 18:28:00,
2013-05-07 14:33:00,76.6,51.8,29.88,North,32767,0.0,0.0,42,0.00,,,0.00,881,Wunderground v.1.15,2013-05-07 18:33:00,
2013-05-07 14:39:00,76.2,51.4,29.88,North,32767,0.0,0.0,42,0.00,,,0.00,902,Wunderground v.1.15,2013-05-07 18:39:00,
2013-05-07 14:45:00,76.4,54.1,29.88,North,32767,0.0,0.0,46,0.00,,,0.00,893,Wunderground v.1.15,2013-05-07 18:45:00,
2013-05-07 14:51:00,76.7,52.5,29.88,North,32767,0.0,0.0,43,0.00,,,0.00,882,Wunderground v.1.15,2013-05-07 18:51:00,
2013-05-07 14:57:00,76.6,51.8,29.88,North,32767,0.0,0.0,42,0.00,,,0.00,858,Wunderground v.1.15,2013-05-07 18:57:00,
2013-05-07 15:02:00,76.4,51.0,29.88,North,32767,0.0,0.0,41,0.00,,,0.00,921,Wunderground v.1.15,2013-05-07 19:02:00,
2013-05-07 15:08:00,76.2,52.1,29.88,North,32767,0.0,0.0,43,0.00,,,0.00,847,Wunderground v.1.15,2013-05-07 19:08:00,
2013-05-07 15:14:00,76.4,53.5,29.88,North,32767,0.0,0.0,45,0.00,,,0.00,893,Wunderground v.1.15,2013-05-07 19:14:00,
2013-05-07 15:20:00,76.7,52.5,29.87,North,32767,0.0,0.0,43,0.00,,,0.00,833,Wunderground v.1.15,2013-05-07 19:20:00,
2013-05-07 15:26:00,76.8,52.6,29.87,North,32767,0.0,0.0,43,0.00,,,0.00,877,Wunderground v.1.15,2013-05-07 19:26:00,
2013-05-07 15:32:00,76.5,51.7,29.87,North,32767,0.0,0.0,42,0.00,,,0.00,835,Wunderground v.1.15,2013-05-07 19:32:00,
2013-05-07 15:38:00,76.2,54.5,29.87,North,32767,0.0,0.0,47,0.00,,,0.00,575,Wunderground v.1.15,2013-05-07 19:38:00,
2013-05-07 15:44:00,76.4,53.5,29.87,North,32767,0.0,0.0,45,0.00,,,0.00,773,Wunderground v.1.15,2013-05-07 19:44:00,
2013-05-07 15:50:00,76.2,54.5,29.87,North,32767,0.0,0.0,47,0.00,,,0.00,673,Wunderground v.1.15,2013-05-07 19:50:00,
2013-05-07 15:56:00,76.4,54.1,29.87,North,32767,0.0,0.0,46,0.00,,,0.00,320,Wunderground v.1.15,2013-05-07 19:56:00,
2013-05-07 16:02:00,76.6,54.3,29.86,North,32767,0.0,0.0,46,0.00,,,0.00,473,Wunderground v.1.15,2013-05-07 20:02:00,
2013-05-07 16:08:00,76.8,52.6,29.86,North,32767,0.0,0.0,43,0.00,,,0.00,359,Wunderground v.1.15,2013-05-07 20:08:00,
2013-05-07 16:14:00,76.9,53.3,29.87,North,32767,0.0,0.0,44,0.00,,,0.00,366,Wunderground v.1.15,2013-05-07 20:14:00,
2013-05-07 16:20:00,76.8,52.0,29.86,North,32767,0.0,0.0,42,0.00,,,0.00,320,Wunderground v.1.15,2013-05-07 20:20:00,
2013-05-07 16:26:00,76.5,50.4,29.86,North,32767,0.0,0.0,40,0.00,,,0.00,197,Wunderground v.1.15,2013-05-07 20:26:00,
2013-05-07 16:32:00,76.0,50.6,29.86,North,32767,0.0,0.0,41,0.00,,,0.00,223,Wunderground v.1.15,2013-05-07 20:32:00,
2013-05-07 16:38:00,75.8,52.9,29.85,North,32767,0.0,0.0,45,0.00,,,0.00,237,Wunderground v.1.15,2013-05-07 20:38:00,
2013-05-07 16:44:00,76.1,51.3,29.86,North,32767,0.0,0.0,42,0.00,,,0.00,236,Wunderground v.1.15,2013-05-07 20:44:00,
2013-05-07 16:50:00,76.2,50.8,29.85,North,32767,0.0,0.0,41,0.00,,,0.00,272,Wunderground v.1.15,2013-05-07 20:50:00,
2013-05-07 16:56:00,76.1,52.6,29.86,North,32767,0.0,0.0,44,0.00,,,0.00,84,Wunderground v.1.15,2013-05-07 20:56:00,
2013-05-07 17:01:00,75.3,51.3,29.86,North,32767,0.0,0.0,43,0.00,,,0.00,111,Wunderground v.1.15,2013-05-07 21:01:00,
2013-05-07 17:07:00,74.6,52.4,29.85,North,32767,0.0,0.0,46,0.00,,,0.00,301,Wunderground v.1.15,2013-05-07 21:07:00,
2013-05-07 17:13:00,74.6,51.9,29.85,North,32767,0.0,0.0,45,0.00,,,0.00,183,Wunderground v.1.15,2013-05-07 21:13:00,
2013-05-07 17:19:00,74.7,51.3,29.85,North,32767,0.0,0.0,44,0.00,,,0.00,172,Wunderground v.1.15,2013-05-07 21:19:00,
2013-05-07 17:25:00,74.7,50.7,29.85,North,32767,0.0,0.0,43,0.00,,,0.00,167,Wunderground v.1.15,2013-05-07 21:25:00,
2013-05-07 17:31:00,74.5,51.2,29.85,North,32767,0.0,0.0,44,0.00,,,0.00,327,Wunderground v.1.15,2013-05-07 21:31:00,
2013-05-07 17:36:00,74.4,51.1,29.85,North,32767,0.0,0.0,44,0.00,,,0.00,176,Wunderground v.1.15,2013-05-07 21:36:00,
2013-05-07 17:42:00,74.3,51.0,29.85,North,32767,0.0,0.0,44,0.00,,,0.00,123,Wunderground v.1.15,2013-05-07 21:42:00,
2013-05-07 17:48:00,74.1,52.0,29.85,North,32767,0.0,0.0,46,0.00,,,0.00,113,Wunderground v.1.15,2013-05-07 21:48:00,
2013-05-07 17:54:00,73.9,50.6,29.85,North,32767,0.0,0.0,44,0.00,,,0.00,102,Wunderground v.1.15,2013-05-07 21:54:00,
2013-05-07 18:00:00,73.8,50.5,29.85,North,32767,0.0,0.0,44,0.00,,,0.00,109,Wunderground v.1.15,2013-05-07 22:00:00,
2013-05-07 18:05:00,73.7,51.0,29.85,North,32767,0.0,0.0,45,0.00,,,0.00,95,Wunderground v.1.15,2013-05-07 22:05:00,
2013-05-07 18:11:00,73.4,51.4,29.85,North,32767,0.0,0.0,46,0.00,,,0.00,70,Wunderground v.1.15,2013-05-07 22:11:00,
2013-05-07 18:17:00,73.1,49.9,29.85,North,32767,0.0,0.0,44,0.00,,,0.00,67,Wunderground v.1.15,2013-05-07 22:17:00,
2013-05-07 18:23:00,72.8,49.6,29.85,North,32767,0.0,0.0,44,0.00,,,0.00,69,Wunderground v.1.15,2013-05-07 22:23:00,
2013-05-07 18:29:00,72.6,50.0,29.85,North,32767,0.0,0.0,45,0.00,,,0.00,70,Wunderground v.1.15,2013-05-07 22:29:00,
2013-05-07 18:34:00,72.6,50.6,29.85,North,32767,0.0,0.0,46,0.00,,,0.00,67,Wunderground v.1.15,2013-05-07 22:34:00,
2013-05-07 18:40:00,72.5,49.9,29.85,North,32767,0.0,0.0,45,0.00,,,0.00,56,Wunderground v.1.15,2013-05-07 22:40:00,
2013-05-07 18:46:00,72.3,49.8,29.85,North,32767,0.0,0.0,45,0.00,,,0.00,60,Wunderground v.1.15,2013-05-07 22:46:00,
2013-05-07 18:52:00,72.2,50.3,29.85,North,32767,0.0,0.0,46,0.00,,,0.00,56,Wunderground v.1.15,2013-05-07 22:52:00,
2013-05-07 18:58:00,72.0,49.5,29.85,North,32767,0.0,0.0,45,0.00,,,0.00,44,Wunderground v.1.15,2013-05-07 22:58:00,
2013-05-07 19:03:00,71.9,50.0,29.85,North,32767,0.0,0.0,46,0.00,,,0.00,40,Wunderground v.1.15,2013-05-07 23:03:00,
2013-05-07 19:09:00,71.7,49.2,29.85,North,32767,0.0,0.0,45,0.00,,,0.00,42,Wunderground v.1.15,2013-05-07 23:09:00,
2013-05-07 19:15:00,71.6,50.3,29.85,North,32767,0.0,0.0,47,0.00,,,0.00,44,Wunderground v.1.15,2013-05-07 23:15:00,
2013-05-07 19:21:00,71.4,50.7,29.85,North,32767,0.0,0.0,48,0.00,,,0.00,35,Wunderground v.1.15,2013-05-07 23:21:00,
2013-05-07 19:26:00,71.2,49.9,29.85,North,32767,0.0,0.0,47,0.00,,,0.00,30,Wunderground v.1.15,2013-05-07 23:26:00,
2013-05-07 19:31:00,71.0,49.7,29.85,North,32767,0.0,0.0,47,0.00,,,0.00,30,Wunderground v.1.15,2013-05-07 23:31:00,
2013-05-07 19:37:00,70.8,49.6,29.85,North,32767,0.0,0.0,47,0.00,,,0.00,28,Wunderground v.1.15,2013-05-07 23:37:00,
2013-05-07 19:42:00,70.7,50.6,29.85,North,32767,0.0,0.0,49,0.00,,,0.00,26,Wunderground v.1.15,2013-05-07 23:42:00,
2013-05-07 19:48:00,70.4,51.4,29.85,North,32767,0.0,0.0,51,0.00,,,0.00,25,Wunderground v.1.15,2013-05-07 23:48:00,
2013-05-07 19:54:00,70.1,51.7,29.86,North,32767,0.0,0.0,52,0.00,,,0.00,21,Wunderground v.1.15,2013-05-07 23:54:00,
2013-05-07 20:00:00,69.7,52.3,29.86,North,32767,0.0,0.0,54,0.00,,,0.00,19,Wunderground v.1.15,2013-05-08 00:00:00,
2013-05-07 20:05:00,69.4,51.0,29.86,North,32767,0.0,0.0,52,0.00,,,0.00,16,Wunderground v.1.15,2013-05-08 00:05:00,
2013-05-07 20:11:00,69.2,51.8,29.86,North,32767,0.0,0.0,54,0.00,,,0.00,12,Wunderground v.1.15,2013-05-08 00:11:00,
2013-05-07 20:17:00,68.8,51.0,29.86,North,32767,0.0,0.0,53,0.00,,,0.00,11,Wunderground v.1.15,2013-05-08 00:17:00,
2013-05-07 20:23:00,68.4,51.1,29.86,North,32767,0.0,0.0,54,0.00,,,0.00,9,Wunderground v.1.15,2013-05-08 00:23:00,
2013-05-07 20:29:00,68.1,52.3,29.86,North,32767,0.0,0.0,57,0.00,,,0.00,5,Wunderground v.1.15,2013-05-08 00:29:00,
2013-05-07 20:34:00,67.7,51.4,29.86,North,32767,0.0,0.0,56,0.00,,,0.00,0,Wunderground v.1.15,2013-05-08 00:34:00,
2013-05-07 20:40:00,67.4,50.7,29.86,North,32767,0.0,0.0,55,0.00,,,0.00,0,Wunderground v.1.15,2013-05-08 00:40:00,
2013-05-07 20:46:00,67.1,51.4,29.86,North,32767,0.0,0.0,57,0.00,,,0.00,0,Wunderground v.1.15,2013-05-08 00:46:00,
2013-05-07 20:52:00,66.8,50.1,29.86,North,32767,0.0,0.0,55,0.00,,,0.00,0,Wunderground v.1.15,2013-05-08 00:52:00,
2013-05-07 20:58:00,66.6,49.9,29.87,North,32767,0.0,0.0,55,0.00,,,0.00,0,Wunderground v.1.15,2013-05-08 00:58:00,
2013-05-07 21:03:00,66.3,50.1,29.87,North,32767,0.0,0.0,56,0.00,,,0.00,0,Wunderground v.1.15,2013-05-08 01:03:00,
2013-05-07 21:09:00,65.9,50.7,29.87,North,32767,0.0,0.0,58,0.00,,,0.00,0,Wunderground v.1.15,2013-05-08 01:09:00,
2013-05-07 21:15:00,65.4,49.8,29.87,North,32767,0.0,0.0,57,0.00,,,0.00,0,Wunderground v.1.15,2013-05-08 01:15:00,
2013-05-07 21:21:00,64.9,50.2,29.87,North,32767,0.0,0.0,59,0.00,,,0.00,0,Wunderground v.1.15,2013-05-08 01:21:00,
2013-05-07 21:27:00,64.4,49.8,29.87,North,32767,0.0,0.0,59,0.00,,,0.00,0,Wunderground v.1.15,2013-05-08 01:27:00,
2013-05-07 21:32:00,64.0,49.4,29.87,North,32767,0.0,0.0,59,0.00,,,0.00,0,Wunderground v.1.15,2013-05-08 01:32:00,
2013-05-07 21:38:00,63.6,50.3,29.88,North,32767,0.0,0.0,62,0.00,,,0.00,0,Wunderground v.1.15,2013-05-08 01:38:00,
2013-05-07 21:44:00,63.2,49.5,29.88,North,32767,0.0,0.0,61,0.00,,,0.00,0,Wunderground v.1.15,2013-05-08 01:44:00,
2013-05-07 21:50:00,62.7,49.9,29.88,North,32767,0.0,0.0,63,0.00,,,0.00,0,Wunderground v.1.15,2013-05-08 01:50:00,
2013-05-07 21:56:00,62.3,50.4,29.88,North,32767,0.0,0.0,65,0.00,,,0.00,0,Wunderground v.1.15,2013-05-08 01:56:00,
2013-05-07 22:01:00,62.0,50.9,29.89,North,32767,0.0,0.0,67,0.00,,,0.00,0,Wunderground v.1.15,2013-05-08 02:01:00,
2013-05-07 22:07:00,61.5,50.4,29.89,North,32767,0.0,0.0,67,0.00,,,0.00,0,Wunderground v.1.15,2013-05-08 02:07:00,
2013-05-07 22:13:00,61.0,50.4,29.89,North,32767,0.0,0.0,68,0.00,,,0.00,0,Wunderground v.1.15,2013-05-08 02:13:00,
2013-05-07 22:19:00,60.5,50.3,29.89,North,32767,0.0,0.0,69,0.00,,,0.00,0,Wunderground v.1.15,2013-05-08 02:19:00,
2013-05-07 22:25:00,60.1,51.0,29.89,North,32767,0.0,0.0,72,0.00,,,0.00,0,Wunderground v.1.15,2013-05-08 02:25:00,
2013-05-07 22:31:00,59.6,50.6,29.89,North,32767,0.0,0.0,72,0.00,,,0.00,0,Wunderground v.1.15,2013-05-08 02:31:00,
2013-05-07 22:36:00,59.3,50.6,29.89,North,32767,0.0,0.0,73,0.00,,,0.00,0,Wunderground v.1.15,2013-05-08 02:36:00,
2013-05-07 22:42:00,59.0,50.4,29.89,North,32767,0.0,0.0,73,0.00,,,0.00,0,Wunderground v.1.15,2013-05-08 02:42:00,
2013-05-07 22:48:00,58.7,50.4,29.89,North,32767,0.0,0.0,74,0.00,,,0.00,0,Wunderground v.1.15,2013-05-08 02:48:00,
2013-05-07 22:53:00,58.4,50.5,29.89,North,32767,0.0,0.0,75,0.00,,,0.00,0,Wunderground v.1.15,2013-05-08 02:53:00,
2013-05-07 22:59:00,58.2,50.3,29.89,North,32767,0.0,0.0,75,0.00,,,0.00,0,Wunderground v.1.15,2013-05-08 02:59:00,
2013-05-07 23:05:00,57.9,50.4,29.89,North,32767,0.0,0.0,76,0.00,,,0.00,0,Wunderground v.1.15,2013-05-08 03:05:00,
2013-05-07 23:11:00,57.7,50.2,29.89,North,32767,0.0,0.0,76,0.00,,,0.00,0,Wunderground v.1.15,2013-05-08 03:11:00,
2013-05-07 23:16:00,57.5,50.3,29.89,North,32767,0.0,0.0,77,0.00,,,0.00,0,Wunderground v.1.15,2013-05-08 03:16:00,
2013-05-07 23:22:00,57.3,50.5,29.89,North,32767,0.0,0.0,78,0.00,,,0.00,0,Wunderground v.1.15,2013-05-08 03:22:00,
2013-05-07 23:28:00,57.1,50.3,29.89,North,32767,0.0,0.0,78,0.00,,,0.00,0,Wunderground v.1.15,2013-05-08 03:28:00,
2013-05-07 23:34:00,56.9,50.1,29.89,North,32767,0.0,0.0,78,0.00,,,0.00,0,Wunderground v.1.15,2013-05-08 03:34:00,
2013-05-07 23:39:00,56.7,49.9,29.89,North,32767,0.0,0.0,78,0.00,,,0.00,0,Wunderground v.1.15,2013-05-08 03:39:00,
2013-05-07 23:45:00,56.5,49.7,29.89,North,32767,0.0,0.0,78,0.00,,,0.00,0,Wunderground v.1.15,2013-05-08 03:45:00,
2013-05-07 23:51:00,56.3,49.5,29.89,North,32767,0.0,0.0,78,0.00,,,0.00,0,Wunderground v.1.15,2013-05-08 03:51:00,
2013-05-07 23:57:00,56.1,49.3,29.89,North,32767,0.0,0.0,78,0.00,,,0.00,0,Wunderground v.1.15,2013-05-08 03:57:00,